Regional Weather Roundup
Issued by NWS Sioux Falls, SD

Home | Current Version | Previous Version | Graphics & Text | Print | Product List | Glossary Off
Versions: 1 2 3 4 5 6 7 8 9 10 11 12 13 14 15 16 17 18 19 20 21 22 23 24 25 26 27 28 29 30 31 32 33 34 35 36 37 38 39 40 41 42 43 44 45 46 47 48 49 50

000
ASUS43 KFSD 260102
RWRFSD

WEATHER ROUNDUP FOR SE SOUTH DAKOTA/SW MINNESOTA/NW IOWA
NATIONAL WEATHER SERVICE SIOUX FALLS SD
700 PM CST SUN JAN 25 2015

NOTE: "FAIR" INDICATES FEW OR NO CLOUDS BELOW 12,000 FEET WITH NO
SIGNIFICANT WEATHER AND OR OBSTRUCTIONS TO VISIBILITY.


SDZ038>040-050-052>070-260200-
SOUTHEAST SOUTH DAKOTA

CITY           SKY/WX    TMP DP  RH WIND       PRES   REMARKS
CHAMBERLAIN    NOT AVBL
HURON          CLOUDY    33  30  88 S7        30.00F WCI  27
MADISON        CLOUDY    32  32 100 W9        30.00S WCI  24
MITCHELL       CLOUDY    35  31  85 S3        30.03R
SIOUX FALLS    CLOUDY    33  30  88 W7        30.03R WCI  27
WINNER         FAIR      36  28  73 S6        30.00S
YANKTON        CLOUDY    36  30  80 CALM      30.05F
$$

MNZ071-072-080-081-089-090-097-098-260200-
SOUTHWEST MINNESOTA

CITY           SKY/WX    TMP DP  RH WIND       PRES   REMARKS
FAIRMONT       CLOUDY    28  21  74 N3        30.04R
JACKSON        CLOUDY    28  27  93 CALM      30.03R
LUVERNE        CLOUDY    34  32  93 SW5       30.03R WCI  30
MARSHALL       MOCLDY    27  23  86 CALM      30.04R
MONTEVIDEO     MOCLDY    27  27 100 CALM      30.05R
PIPESTONE      CLOUDY    32  30  93 W5        29.99R WCI  27
REDWOOD FALLS  CLOUDY    30  24  78 SE5       30.03S WCI  25
TRACY          CLOUDY    29  28  94 CALM      30.02S
WINDOM         CLOUDY    28  27  93 CALM      30.02S
WORTHINGTON    CLOUDY    28  27  93 CALM      30.02S
$$

IAZ001>003-012>014-020>022-031-032-NEZ013-014-SDZ071-260200-
NORTHWEST IOWA

CITY           SKY/WX    TMP DP  RH WIND       PRES   REMARKS
ESTHERVILLE    CLOUDY    27  24  89 CALM      30.03S
SIOUX CITY     CLOUDY    36  32  85 W7        30.06S
SPENCER        CLOUDY    32  28  85 CALM      30.03F
$$

ABBREVIATIONS USED IN REMARKS
   TC - TEMPERATURE IN CELSIUS
  WCI - WIND CHILL INDEX
   HX - HEAT INDEX
  VSB - VISIBILITY



USA.gov is the U.S. government's official web portal to all federal, state and local government web resources and services.